Content
SEND FEEDBACK

Daily
Averages
Monthly
Summary
Canada

VANCOUVER, BRITISH COLUMBIA


Home > North America > Canada > British Columbia
Elevation: 2 meters     Latitude: 49 11N     Longitude: 123 10W

WEATHER
 
SELECT A DAY
Number of Records: 249,809;   Date Range: 5/15/97 - 9/15/14
 
SHARE

PRINT THIS DATA

[ ← Previous Day ]
WEATHER ALMANAC - 22 OCTOBER, 2013
[ Next Day → ]
[ °F ]   °C
Weather ElementAverageHighLow
Temperature8.1 °C9 °C (10:55 am)7 °C (9:55 pm)
Dewpoint8.1 °C9 °C (10:55 am)7 °C (9:55 pm)
Humidity100 %100 % (12:35 am)100 % (12:35 am)
Barometer1019 hPa1020.7 hPa (12:35 am)1017.3 hPa (5:35 pm)
Wind Speed6.9 km/h13 km/h (5:15 am)
Weather ElementAverage
Visibility0.5 km
Wind DirectionSSW (215 °)

Weather ElementTotal
Precipitation---
Heating Degree Days10.3 (Base 18.3)
Averaged from 62 records on 22 October, 2013
WEATHER CONDITIONS BREAKOUT
WIND DIRECTION BREAKOUT
WEATHER BY HOUR - 22 OCTOBER, 2013
[ °F ]   °C
Local TimeTemperatureDewpointHumidityBarometerVisibilityWind DirectionWind SpeedGust SpeedPrecipitationEventsConditions
12:35 AM8 °C8 °C100 %1020.7 hPa0.8 kmNorth (350°)9.3 km/hRainLight Rain
12:55 AM8 °C8 °C100 %1020.7 hPa0.8 kmNorth (360°)11.1 km/hRainLight Rain
1:15 AM8 °C8 °C100 %1020.3 hPa0.8 kmNNW (340°)9.3 km/hRainLight Rain
1:35 AM8 °C8 °C100 %1020.3 hPa0.8 kmNorth (10°)9.3 km/hRainLight Rain
1:55 AM8 °C8 °C100 %1020.3 hPa0.8 kmNorth (350°)9.3 km/hRainLight Rain
4:55 AM8 °C8 °C100 %1020 hPa0.8 kmNorth (10°)9.3 km/hFogFog
5:15 AM8 °C8 °C100 %1020 hPa0.8 kmNorth (350°)13 km/hRainLight Rain
5:35 AM8 °C8 °C100 %1020 hPa0.3 kmNorth (360°)9.3 km/hRainLight Rain
5:55 AM8 °C8 °C100 %1020 hPa0.3 kmNorth (360°)11.1 km/hRainLight Rain
6:15 AM8 °C8 °C100 %1020 hPa0.3 kmNorth (10°)5.6 km/hFogFog
6:35 AM8 °C8 °C100 %1020 hPa0.3 kmNorth (10°)7.4 km/hFogFog
6:55 AM8 °C8 °C100 %1020 hPa0.3 kmNorth (350°)11.1 km/hFogFog
7:15 AM8 °C8 °C100 %1020 hPa0.3 kmNorth (360°)7.4 km/hFogFog
7:35 AM8 °C8 °C100 %1020 hPa0.3 kmNNE (20°)5.6 km/hRainLight Rain
7:55 AM8 °C8 °C100 %1020 hPa0.3 kmCalmFogFog
8:15 AM8 °C8 °C100 %1020 hPa0.3 kmNorth (10°)9.3 km/hRainLight Rain
8:35 AM8 °C8 °C100 %1020.3 hPa0.3 kmNorth (350°)9.3 km/hRainLight Rain
8:55 AM8 °C8 °C100 %1020.3 hPa0.3 kmNorth (360°)9.3 km/hFogFog
9:15 AM8 °C8 °C100 %1020.3 hPa0.3 kmNorth (360°)7.4 km/hFogFog
9:35 AM8 °C8 °C100 %1020.3 hPa0.3 kmNorth (350°)9.3 km/hFogFog
9:55 AM8 °C8 °C100 %1020.3 hPa0.3 kmNorth (360°)13 km/hFogFog
10:15 AM8 °C8 °C100 %1020.3 hPa0.3 kmNorth (360°)9.3 km/hFogFog
10:35 AM8 °C8 °C100 %1020 hPa0.8 kmNorth (350°)13 km/hFogFog
10:55 AM9 °C9 °C100 %1020 hPa0.3 kmNorth (350°)11.1 km/hFogFog
11:15 AM9 °C9 °C100 %1020 hPa0.3 kmNNW (340°)11.1 km/hFogFog
11:35 AM8 °C8 °C100 %1019.6 hPa0.3 kmNorth (350°)11.1 km/hFogFog
11:55 AM8 °C8 °C100 %1019.6 hPa0.3 kmNorth (350°)11.1 km/hFogFog
12:15 PM9 °C9 °C100 %1019.6 hPa0.3 kmNNW (340°)11.1 km/hFogFog
12:35 PM8 °C8 °C100 %1019.6 hPa0.3 kmNNW (330°)11.1 km/hFogFog
12:55 PM8 °C8 °C100 %1019.3 hPa0.8 kmNorth (350°)13 km/hFogFog
1:15 PM8 °C8 °C100 %1019.3 hPa0.3 kmNorth (350°)13 km/hFogFog
1:35 PM9 °C9 °C100 %1019 hPa0.8 kmNorth (350°)11.1 km/hFogFog
1:55 PM9 °C9 °C100 %1019 hPa0.3 kmNorth (360°)11.1 km/hFogFog
2:15 PM8 °C8 °C100 %1019 hPa0.8 kmNNW (340°)9.3 km/hFogFog
2:35 PM8 °C8 °C100 %1018.6 hPa0.8 kmNorth (360°)11.1 km/hFogFog
2:55 PM8 °C8 °C100 %1018.6 hPa0.3 kmNNW (340°)7.4 km/hFogFog
3:15 PM9 °C9 °C100 %1018.6 hPa0.3 kmNorth (350°)9.3 km/hFogFog
3:35 PM9 °C9 °C100 %1018.6 hPa0.3 kmNorth (350°)11.1 km/hFogFog
3:55 PM9 °C9 °C100 %1018.3 hPa0.8 kmNNW (330°)11.1 km/hFogFog
4:15 PM9 °C9 °C100 %1018.3 hPa0.3 kmNNW (340°)9.3 km/hFogFog
4:35 PM8 °C8 °C100 %1018.3 hPa0.3 kmNNW (340°)5.6 km/hFogFog
4:55 PM9 °C9 °C100 %1017.9 hPa0.3 kmNorth (350°)9.3 km/hRainLight Rain
5:15 PM8 °C8 °C100 %1017.6 hPa0.3 kmCalmFogFog
5:35 PM9 °C9 °C100 %1017.3 hPa0.3 kmCalmFogFog
5:55 PM8 °C8 °C100 %1017.3 hPa0.3 kmCalmRainLight Rain
6:15 PM8 °C8 °C100 %1017.3 hPa0.3 kmCalmRainLight Rain
6:35 PM8 °C8 °C100 %1017.3 hPa0.3 kmCalmFogFog
6:55 PM8 °C8 °C100 %1017.3 hPa0.3 kmCalmFogFog
7:15 PM8 °C8 °C100 %1017.3 hPa0.3 kmCalmRainLight Rain
7:35 PM8 °C8 °C100 %1017.3 hPa0.3 kmCalmRainLight Rain
8:15 PM8 °C8 °C100 %1017.3 hPa0.3 kmCalmRainLight Rain
8:35 PM8 °C8 °C100 %1017.3 hPa0.3 kmNNW (330°)7.4 km/hFogFog
8:55 PM8 °C8 °C100 %1017.3 hPa0.3 kmCalmFogFog
9:15 PM8 °C8 °C100 %1017.3 hPa0.3 kmCalmFogFog
9:35 PM8 °C8 °C100 %1017.6 hPa0.3 kmCalmRainLight Rain
9:55 PM7 °C7 °C100 %1017.6 hPa0.3 kmCalmRainLight Rain
10:15 PM7 °C7 °C100 %1017.6 hPa0.3 kmCalmRainLight Rain
10:35 PM7 °C7 °C100 %1017.6 hPa0.3 kmCalmRainLight Rain
10:55 PM8 °C8 °C100 %1017.6 hPa0.3 kmCalmRainLight Rain
11:15 PM7 °C7 °C100 %1017.6 hPa0.3 kmCalmFogFog
11:35 PM7 °C7 °C100 %1017.6 hPa0.3 kmNNW (340°)5.6 km/hFogFog
11:55 PM7 °C7 °C100 %1017.6 hPa0.3 kmNorth (350°)7.4 km/hFogFog
Hourly data recorded from CZBB, located 0 kilometers away from Vancouver, British Columbia







STORIES FROM OUR PARTNERS